Time,TemperatureF,DewpointF,PressureIn,WindDirection,WindDirectionDegrees,WindSpeedMPH,WindSpeedGustMPH,Humidity,HourlyPrecipIn,Conditions,Clouds,dailyrainin,SoftwareType,DateUTC
2013-02-03 00:02:00,45.0,32.0,-100.00,SW,225,1.0,3.0,60,-99.99,,,-99.99,,2013-02-03 06:02:00,
2013-02-03 00:11:00,45.0,31.0,-100.00,SW,225,2.0,3.0,59,-99.99,,,-99.99,,2013-02-03 06:11:00,
2013-02-03 00:21:00,45.0,31.0,-100.00,SW,225,2.0,3.0,59,-99.99,,,-99.99,,2013-02-03 06:21:00,
2013-02-03 00:32:00,44.0,31.0,-100.00,WSW,240,1.0,2.0,60,-99.99,,,-99.99,,2013-02-03 06:32:00,
2013-02-03 00:42:00,44.0,31.0,-100.00,West,275,1.0,2.0,60,-99.99,,,-99.99,,2013-02-03 06:42:00,
2013-02-03 00:52:00,44.0,31.0,-100.00,West,275,1.0,2.0,60,-99.99,,,-99.99,,2013-02-03 06:52:00,
2013-02-03 01:01:00,45.0,31.0,-100.00,West,260,2.0,3.0,57,-99.99,,,-99.99,,2013-02-03 07:01:00,
2013-02-03 01:11:00,45.0,31.0,-100.00,West,275,2.0,3.0,57,-99.99,,,-99.99,,2013-02-03 07:11:00,
2013-02-03 01:21:00,45.0,31.0,-100.00,West,275,2.0,3.0,57,-99.99,,,-99.99,,2013-02-03 07:21:00,
2013-02-03 01:31:00,45.0,31.0,-100.00,West,270,2.0,3.0,57,-99.99,,,-99.99,,2013-02-03 07:31:00,
2013-02-03 01:42:00,45.0,31.0,-100.00,West,275,2.0,3.0,57,-99.99,,,-99.99,,2013-02-03 07:42:00,
2013-02-03 01:52:00,45.0,31.0,-100.00,West,275,2.0,3.0,57,-99.99,,,-99.99,,2013-02-03 07:52:00,
2013-02-03 02:01:00,45.0,31.0,-100.00,WNW,285,1.0,2.0,58,-99.99,,,-99.99,,2013-02-03 08:01:00,
2013-02-03 02:11:00,44.0,30.0,-100.00,West,265,1.0,2.0,58,-99.99,,,-99.99,,2013-02-03 08:11:00,
2013-02-03 02:22:00,44.0,30.0,-100.00,West,265,1.0,2.0,58,-99.99,,,-99.99,,2013-02-03 08:22:00,
2013-02-03 02:32:00,43.0,30.0,-100.00,West,280,1.0,2.0,60,-99.99,,,-99.99,,2013-02-03 08:32:00,
2013-02-03 02:41:00,43.0,30.0,-100.00,West,270,1.0,2.0,61,-99.99,,,-99.99,,2013-02-03 08:41:00,
2013-02-03 02:52:00,43.0,30.0,-100.00,West,270,1.0,2.0,61,-99.99,,,-99.99,,2013-02-03 08:52:00,
2013-02-03 03:02:00,42.0,30.0,-100.00,West,275,1.0,2.0,62,-99.99,,,-99.99,,2013-02-03 09:02:00,
2013-02-03 03:11:00,42.0,30.0,-100.00,West,280,1.0,2.0,63,-99.99,,,-99.99,,2013-02-03 09:11:00,
2013-02-03 03:21:00,42.0,30.0,-100.00,West,280,1.0,2.0,63,-99.99,,,-99.99,,2013-02-03 09:21:00,
2013-02-03 03:31:00,42.0,30.0,-100.00,WNW,290,1.0,2.0,62,-99.99,,,-99.99,,2013-02-03 09:31:00,
2013-02-03 03:42:00,42.0,29.0,-100.00,WNW,300,1.0,2.0,61,-99.99,,,-99.99,,2013-02-03 09:42:00,
2013-02-03 03:51:00,42.0,29.0,-100.00,WNW,300,1.0,2.0,61,-99.99,,,-99.99,,2013-02-03 09:51:00,
2013-02-03 04:01:00,41.0,28.0,-100.00,WNW,290,2.0,3.0,61,-99.99,,,-99.99,,2013-02-03 10:01:00,
2013-02-03 04:11:00,40.0,28.0,-100.00,WNW,290,1.0,2.0,62,-99.99,,,-99.99,,2013-02-03 10:11:00,
2013-02-03 04:21:00,40.0,28.0,-100.00,WNW,290,1.0,2.0,62,-99.99,,,-99.99,,2013-02-03 10:21:00,
2013-02-03 04:31:00,40.0,28.0,-100.00,West,270,1.0,2.0,62,-99.99,,,-99.99,,2013-02-03 10:31:00,
2013-02-03 04:42:00,40.0,28.0,-100.00,WNW,285,2.0,2.0,63,-99.99,,,-99.99,,2013-02-03 10:42:00,
2013-02-03 04:52:00,40.0,28.0,-100.00,WNW,285,2.0,2.0,63,-99.99,,,-99.99,,2013-02-03 10:52:00,
2013-02-03 05:02:00,39.0,28.0,-100.00,West,265,1.0,2.0,64,-99.99,,,-99.99,,2013-02-03 11:02:00,
2013-02-03 05:11:00,39.0,28.0,-100.00,West,280,1.0,2.0,64,-99.99,,,-99.99,,2013-02-03 11:11:00,
2013-02-03 05:22:00,39.0,28.0,-100.00,West,280,1.0,2.0,64,-99.99,,,-99.99,,2013-02-03 11:22:00,
2013-02-03 05:32:00,38.0,28.0,-100.00,West,275,1.0,2.0,66,-99.99,,,-99.99,,2013-02-03 11:32:00,
2013-02-03 05:42:00,37.0,28.0,-100.00,WNW,290,1.0,1.0,68,-99.99,,,-99.99,,2013-02-03 11:42:00,
2013-02-03 05:52:00,37.0,28.0,-100.00,WNW,290,1.0,1.0,68,-99.99,,,-99.99,,2013-02-03 11:52:00,
2013-02-03 06:02:00,38.0,28.0,-100.00,West,275,1.0,2.0,68,-99.99,,,-99.99,,2013-02-03 12:02:00,
2013-02-03 06:11:00,38.0,28.0,-100.00,WNW,290,2.0,3.0,67,-99.99,,,-99.99,,2013-02-03 12:11:00,
2013-02-03 06:22:00,38.0,28.0,-100.00,WNW,290,2.0,3.0,67,-99.99,,,-99.99,,2013-02-03 12:22:00,
2013-02-03 06:32:00,38.0,28.0,-100.00,West,275,2.0,2.0,68,-99.99,,,-99.99,,2013-02-03 12:32:00,
2013-02-03 06:42:00,38.0,28.0,-100.00,West,275,2.0,3.0,67,-99.99,,,-99.99,,2013-02-03 12:42:00,
2013-02-03 06:53:00,38.0,28.0,-100.00,West,275,2.0,3.0,67,-99.99,,,-99.99,,2013-02-03 12:53:00,
2013-02-03 07:03:00,38.0,28.0,-100.00,WNW,300,1.0,3.0,68,-99.99,,,-99.99,,2013-02-03 13:03:00,
2013-02-03 07:11:00,37.0,28.0,-100.00,West,270,1.0,2.0,70,-99.99,,,-99.99,,2013-02-03 13:11:00,
2013-02-03 07:21:00,37.0,28.0,-100.00,West,270,1.0,2.0,70,-99.99,,,-99.99,,2013-02-03 13:21:00,
2013-02-03 07:32:00,36.0,28.0,-100.00,West,280,1.0,2.0,72,-99.99,,,-99.99,,2013-02-03 13:32:00,
2013-02-03 07:42:00,36.0,28.0,-100.00,NW,305,2.0,2.0,72,-99.99,,,-99.99,,2013-02-03 13:42:00,
2013-02-03 07:52:00,36.0,28.0,-100.00,NW,305,2.0,2.0,72,-99.99,,,-99.99,,2013-02-03 13:52:00,
2013-02-03 08:02:00,36.0,27.0,-100.00,WNW,295,2.0,3.0,69,-99.99,,,-99.99,,2013-02-03 14:02:00,
2013-02-03 08:11:00,35.0,27.0,-100.00,West,280,1.0,2.0,70,-99.99,,,-99.99,,2013-02-03 14:11:00,
2013-02-03 08:20:00,37.0,25.0,-100.00,WNW,290,2.0,4.0,62,-99.99,,,-99.99,,2013-02-03 14:20:00,
2013-02-03 08:21:00,35.0,27.0,-100.00,West,280,1.0,2.0,70,-99.99,,,-99.99,,2013-02-03 14:21:00,
2013-02-03 08:32:00,36.0,26.0,-100.00,West,275,2.0,3.0,67,-99.99,,,-99.99,,2013-02-03 14:32:00,
2013-02-03 08:42:00,36.0,26.0,-100.00,West,280,2.0,3.0,66,-99.99,,,-99.99,,2013-02-03 14:42:00,
2013-02-03 08:52:00,36.0,26.0,-100.00,West,280,2.0,3.0,66,-99.99,,,-99.99,,2013-02-03 14:52:00,
2013-02-03 09:03:00,37.0,25.0,-100.00,WNW,290,2.0,4.0,62,-99.99,,,-99.99,,2013-02-03 15:03:00,
2013-02-03 09:11:00,37.0,25.0,-100.00,WNW,290,2.0,4.0,62,-99.99,,,-99.99,,2013-02-03 15:11:00,
2013-02-03 10:11:00,39.0,23.0,-100.00,NW,305,2.0,4.0,52,-99.99,,,-99.99,,2013-02-03 16:11:00,
2013-02-03 10:22:00,39.0,23.0,-100.00,NW,305,2.0,4.0,52,-99.99,,,-99.99,,2013-02-03 16:22:00,
2013-02-03 10:33:00,40.0,22.0,-100.00,WNW,285,2.0,4.0,48,-99.99,,,-99.99,,2013-02-03 16:33:00,
2013-02-03 10:42:00,40.0,20.0,-100.00,NW,325,3.0,5.0,44,-99.99,,,-99.99,,2013-02-03 16:42:00,
2013-02-03 10:52:00,40.0,20.0,-100.00,NW,325,3.0,5.0,44,-99.99,,,-99.99,,2013-02-03 16:52:00,
2013-02-03 11:02:00,40.0,19.0,-100.00,NW,315,3.0,4.0,42,-99.99,,,-99.99,,2013-02-03 17:02:00,
2013-02-03 11:11:00,40.0,19.0,-100.00,NW,320,2.0,4.0,42,-99.99,,,-99.99,,2013-02-03 17:11:00,
2013-02-03 11:22:00,40.0,19.0,-100.00,NW,320,2.0,4.0,42,-99.99,,,-99.99,,2013-02-03 17:22:00,
2013-02-03 11:32:00,40.0,18.0,-100.00,WNW,300,3.0,4.0,41,-99.99,,,-99.99,,2013-02-03 17:32:00,
2013-02-03 11:42:00,40.0,18.0,-100.00,NW,320,2.0,4.0,40,-99.99,,,-99.99,,2013-02-03 17:42:00,
2013-02-03 11:52:00,40.0,18.0,-100.00,NW,320,2.0,4.0,40,-99.99,,,-99.99,,2013-02-03 17:52:00,
2013-02-03 12:03:00,41.0,18.0,-100.00,WNW,300,2.0,4.0,39,-99.99,,,-99.99,,2013-02-03 18:03:00,
2013-02-03 12:12:00,41.0,18.0,-100.00,NW,315,3.0,4.0,39,-99.99,,,-99.99,,2013-02-03 18:12:00,
2013-02-03 12:23:00,41.0,18.0,-100.00,NW,315,3.0,4.0,39,-99.99,,,-99.99,,2013-02-03 18:23:00,
2013-02-03 12:33:00,42.0,18.0,-100.00,NW,320,2.0,3.0,38,-99.99,,,-99.99,,2013-02-03 18:33:00,
2013-02-03 12:42:00,42.0,18.0,-100.00,NW,320,2.0,3.0,37,-99.99,,,-99.99,,2013-02-03 18:42:00,
2013-02-03 12:51:00,42.0,18.0,-100.00,NW,320,2.0,3.0,37,-99.99,,,-99.99,,2013-02-03 18:51:00,
2013-02-03 13:02:00,43.0,18.0,-100.00,NNW,330,2.0,3.0,36,-99.99,,,-99.99,,2013-02-03 19:02:00,
2013-02-03 13:11:00,43.0,19.0,-100.00,WNW,290,1.0,3.0,38,-99.99,,,-99.99,,2013-02-03 19:11:00,
2013-02-03 13:22:00,43.0,19.0,-100.00,WNW,290,1.0,3.0,38,-99.99,,,-99.99,,2013-02-03 19:22:00,
2013-02-03 13:32:00,43.0,18.0,-100.00,WNW,300,1.0,3.0,36,-99.99,,,-99.99,,2013-02-03 19:32:00,
2013-02-03 13:42:00,43.0,17.0,-100.00,NNW,330,1.0,3.0,35,-99.99,,,-99.99,,2013-02-03 19:42:00,
2013-02-03 13:51:00,43.0,17.0,-100.00,NNW,330,1.0,3.0,35,-99.99,,,-99.99,,2013-02-03 19:51:00,
2013-02-03 14:01:00,44.0,18.0,-100.00,NW,315,1.0,3.0,34,-99.99,,,-99.99,,2013-02-03 20:01:00,
2013-02-03 14:12:00,45.0,17.0,-100.00,WNW,300,1.0,2.0,32,-99.99,,,-99.99,,2013-02-03 20:12:00,
2013-02-03 14:21:00,45.0,17.0,-100.00,WNW,300,1.0,2.0,32,-99.99,,,-99.99,,2013-02-03 20:21:00,
2013-02-03 14:33:00,45.0,18.0,-100.00,NW,305,2.0,2.0,33,-99.99,,,-99.99,,2013-02-03 20:33:00,
2013-02-03 14:42:00,45.0,18.0,-100.00,NNW,330,1.0,2.0,33,-99.99,,,-99.99,,2013-02-03 20:42:00,
2013-02-03 14:52:00,45.0,18.0,-100.00,NNW,330,1.0,2.0,33,-99.99,,,-99.99,,2013-02-03 20:52:00,
2013-02-03 15:03:00,46.0,18.0,-100.00,NW,310,1.0,2.0,33,-99.99,,,-99.99,,2013-02-03 21:03:00,
2013-02-03 15:11:00,47.0,17.0,-100.00,NW,315,1.0,1.0,30,-99.99,,,-99.99,,2013-02-03 21:11:00,
2013-02-03 15:21:00,47.0,17.0,-100.00,NW,315,1.0,1.0,30,-99.99,,,-99.99,,2013-02-03 21:21:00,
2013-02-03 15:32:00,46.0,17.0,-100.00,NE,55,1.0,1.0,31,-99.99,,,-99.99,,2013-02-03 21:32:00,
2013-02-03 15:42:00,47.0,18.0,-100.00,North,355,1.0,1.0,30,-99.99,,,-99.99,,2013-02-03 21:42:00,
2013-02-03 15:51:00,47.0,18.0,-100.00,North,355,1.0,1.0,30,-99.99,,,-99.99,,2013-02-03 21:51:00,
2013-02-03 16:01:00,47.0,18.0,-100.00,South,180,1.0,1.0,31,-99.99,,,-99.99,,2013-02-03 22:01:00,
2013-02-03 16:11:00,48.0,20.0,-100.00,WNW,300,1.0,1.0,32,-99.99,,,-99.99,,2013-02-03 22:11:00,
2013-02-03 16:21:00,48.0,20.0,-100.00,WNW,300,1.0,1.0,32,-99.99,,,-99.99,,2013-02-03 22:21:00,
2013-02-03 16:32:00,49.0,19.0,-100.00,WNW,285,1.0,1.0,30,-99.99,,,-99.99,,2013-02-03 22:32:00,
2013-02-03 16:42:00,48.0,18.0,-100.00,West,280,0.0,1.0,30,-99.99,,,-99.99,,2013-02-03 22:42:00,
2013-02-03 16:51:00,48.0,18.0,-100.00,West,280,0.0,1.0,30,-99.99,,,-99.99,,2013-02-03 22:51:00,
2013-02-03 17:01:00,48.0,18.0,-100.00,WNW,290,0.0,1.0,30,-99.99,,,-99.99,,2013-02-03 23:01:00,
2013-02-03 17:12:00,49.0,18.0,-100.00,West,275,1.0,1.0,29,-99.99,,,-99.99,,2013-02-03 23:12:00,
2013-02-03 17:22:00,49.0,18.0,-100.00,West,275,1.0,1.0,29,-99.99,,,-99.99,,2013-02-03 23:22:00,
2013-02-03 17:32:00,48.0,18.0,-100.00,South,185,1.0,1.0,30,-99.99,,,-99.99,,2013-02-03 23:32:00,
2013-02-03 17:42:00,47.0,19.0,-100.00,South,170,1.0,1.0,32,-99.99,,,-99.99,,2013-02-03 23:42:00,
2013-02-03 17:52:00,47.0,19.0,-100.00,South,170,1.0,1.0,32,-99.99,,,-99.99,,2013-02-03 23:52:00,
2013-02-03 18:00:00,42.0,22.0,-100.00,North,0,0.0,1.0,44,-99.99,,,-99.99,,2013-02-04 00:00:00,
2013-02-03 18:02:00,46.0,20.0,-100.00,SE,145,1.0,1.0,36,-99.99,,,-99.99,,2013-02-04 00:02:00,
2013-02-03 18:11:00,45.0,21.0,-100.00,SE,145,1.0,1.0,38,-99.99,,,-99.99,,2013-02-04 00:11:00,
2013-02-03 18:22:00,45.0,21.0,-100.00,SE,145,1.0,1.0,38,-99.99,,,-99.99,,2013-02-04 00:22:00,
2013-02-03 18:32:00,43.0,22.0,-100.00,SSE,160,0.0,1.0,43,-99.99,,,-99.99,,2013-02-04 00:32:00,
2013-02-03 18:42:00,42.0,22.0,-100.00,North,0,0.0,1.0,44,-99.99,,,-99.99,,2013-02-04 00:42:00,
2013-02-03 18:51:00,42.0,22.0,-100.00,North,0,0.0,1.0,44,-99.99,,,-99.99,,2013-02-04 00:51:00,
2013-02-03 19:11:00,39.0,23.0,-100.00,SW,220,0.0,1.0,52,-99.99,,,-99.99,,2013-02-04 01:11:00,
2013-02-03 19:21:00,39.0,23.0,-100.00,SW,220,0.0,1.0,52,-99.99,,,-99.99,,2013-02-04 01:21:00,
2013-02-03 19:32:00,37.0,24.0,-100.00,South,175,0.0,0.0,60,-99.99,,,-99.99,,2013-02-04 01:32:00,
2013-02-03 19:41:00,36.0,25.0,-100.00,South,190,0.0,1.0,64,-99.99,,,-99.99,,2013-02-04 01:41:00,
2013-02-03 19:52:00,36.0,25.0,-100.00,South,190,0.0,1.0,64,-99.99,,,-99.99,,2013-02-04 01:52:00,
2013-02-03 20:02:00,36.0,25.0,-100.00,NW,325,0.0,1.0,64,-99.99,,,-99.99,,2013-02-04 02:02:00,
2013-02-03 20:11:00,36.0,25.0,-100.00,North,0,0.0,1.0,66,-99.99,,,-99.99,,2013-02-04 02:11:00,
2013-02-03 20:21:00,36.0,25.0,-100.00,North,0,0.0,1.0,66,-99.99,,,-99.99,,2013-02-04 02:21:00,
2013-02-03 20:32:00,34.0,25.0,-100.00,ESE,105,0.0,1.0,68,-99.99,,,-99.99,,2013-02-04 02:32:00,
2013-02-03 20:41:00,34.0,25.0,-100.00,SSE,150,0.0,1.0,68,-99.99,,,-99.99,,2013-02-04 02:41:00,
2013-02-03 20:52:00,33.0,25.0,-100.00,SW,215,0.0,1.0,71,-99.99,,,-99.99,,2013-02-04 02:52:00,
2013-02-03 21:02:00,33.0,25.0,-100.00,SW,215,0.0,1.0,71,-99.99,,,-99.99,,2013-02-04 03:02:00,
2013-02-03 21:11:00,34.0,25.0,-100.00,NNE,30,0.0,1.0,71,-99.99,,,-99.99,,2013-02-04 03:11:00,
2013-02-03 21:21:00,34.0,25.0,-100.00,NNE,30,0.0,1.0,71,-99.99,,,-99.99,,2013-02-04 03:21:00,
2013-02-03 21:32:00,35.0,25.0,-100.00,SSE,150,0.0,1.0,66,-99.99,,,-99.99,,2013-02-04 03:32:00,
2013-02-03 21:42:00,34.0,25.0,-100.00,ENE,70,0.0,1.0,69,-99.99,,,-99.99,,2013-02-04 03:42:00,
2013-02-03 21:51:00,34.0,25.0,-100.00,ENE,70,0.0,1.0,69,-99.99,,,-99.99,,2013-02-04 03:51:00,
2013-02-03 22:01:00,36.0,25.0,-100.00,South,190,1.0,1.0,63,-99.99,,,-99.99,,2013-02-04 04:01:00,
2013-02-03 22:11:00,39.0,25.0,-100.00,SSE,155,1.0,2.0,56,-99.99,,,-99.99,,2013-02-04 04:11:00,
2013-02-03 22:21:00,39.0,25.0,-100.00,SSE,155,1.0,2.0,56,-99.99,,,-99.99,,2013-02-04 04:21:00,
2013-02-03 22:32:00,42.0,24.0,-100.00,South,175,1.0,2.0,48,-99.99,,,-99.99,,2013-02-04 04:32:00,
2013-02-03 22:42:00,42.0,23.0,-100.00,South,180,1.0,2.0,47,-99.99,,,-99.99,,2013-02-04 04:42:00,
2013-02-03 22:52:00,42.0,23.0,-100.00,South,180,1.0,2.0,47,-99.99,,,-99.99,,2013-02-04 04:52:00,
2013-02-03 23:03:00,43.0,23.0,-100.00,South,180,1.0,2.0,46,-99.99,,,-99.99,,2013-02-04 05:03:00,
2013-02-03 23:11:00,43.0,23.0,-100.00,South,175,1.0,2.0,46,-99.99,,,-99.99,,2013-02-04 05:11:00,
2013-02-03 23:22:00,43.0,23.0,-100.00,South,175,1.0,2.0,46,-99.99,,,-99.99,,2013-02-04 05:22:00,
2013-02-03 23:33:00,43.0,23.0,-100.00,SSE,160,1.0,2.0,46,-99.99,,,-99.99,,2013-02-04 05:33:00,
2013-02-03 23:42:00,43.0,24.0,-100.00,South,180,1.0,2.0,46,-99.99,,,-99.99,,2013-02-04 05:42:00,
2013-02-03 23:52:00,43.0,24.0,-100.00,South,180,1.0,2.0,46,-99.99,,,-99.99,,2013-02-04 05:52:00,